Pampa, TX

10:47 PM CST on February 22, 2017 (GMT -0600)
Perry Lefors

Weather History for KPPA - February, 2013

Change the Weather History Date:

Friday, February 1, 2013

  Actual Average Record
Temperature  
Mean Temperature 34 °F -  
Max Temperature 50 °F 51 °F 78 °F (1989)
Min Temperature 19 °F 24 °F -3 °F (1985)
Degree Days  
Heating Degree Days 30    
Moisture  
Dew Point 20 °F    
Average Humidity 64    
Maximum Humidity 86    
Minimum Humidity 35    
Precipitation  
Precipitation 0.00 in - - ()
Sea Level Pressure  
Sea Level Pressure 30.16 in    
Wind  
Wind Speed 14 mph (SSE)    
Max Wind Speed 26 mph    
Max Gust Speed 37 mph    
Visibility 10 miles    
Events      
Averages and records for this station are not official NWS values.
T = Trace of Precipitation, MM = Missing Value Source: NWS Daily Summary

Daily Weather History Graph

Daily Weather History Graph

Search for Another Location

Airport or City:

Trip Planner

Search our weather history database for the weather conditions in past years. The results will help you decide how hot, cold, wet, or windy it might be!

Date:

Astronomy

Feb. 01, 2013 Rise Set
Actual Time 7:43 AM CST 6:12 PM CST
Civil Twilight 7:16 AM CST 6:38 PM CST
Nautical Twilight 6:46 AM CST 7:09 PM CST
Astronomical Twilight 6:16 AM CST 7:39 PM CST
Moon No Moon Rise 10:31 AM CST (2/1)
Length of Visible Light 11h 21m
Length of Day
10h 28m
Waning Gibbous, 70% of the Moon is Illuminated
Feb 1
Waning Gibbous
Feb 3
Last Quarter
Feb 10
New
Feb 17
First Quarter
Feb 25
Full

Hourly Weather History & Observations

Time (CST) Temp. Windchill Dew Point Humidity Pressure Visibility Wind Dir Wind Speed Gust Speed Precip Events Conditions
12:35 AM 24.8 °F 13.4 °F 19.4 °F 80% 30.27 in 10.0 mi SE 12.7 mph - N/A   Clear
12:55 AM 23.0 °F 10.6 °F 19.4 °F 86% 30.27 in 10.0 mi SE 13.8 mph - N/A   Clear
1:15 AM 23.0 °F 10.6 °F 19.4 °F 86% 30.27 in 10.0 mi SE 13.8 mph - N/A   Clear
1:35 AM 23.0 °F 10.1 °F 19.4 °F 86% 30.27 in 10.0 mi SE 15.0 mph - N/A   Clear
2:15 AM 21.2 °F 6.0 °F 17.6 °F 86% 30.26 in 10.0 mi SE 19.6 mph 24.2 mph N/A   Clear
2:35 AM 21.2 °F 6.0 °F 17.6 °F 86% 30.25 in 10.0 mi SE 19.6 mph - N/A   Clear
2:55 AM 21.2 °F 6.4 °F 17.6 °F 86% 30.25 in 10.0 mi SE 18.4 mph - N/A   Clear
3:15 AM 21.2 °F 6.8 °F 17.6 °F 86% 30.25 in 10.0 mi SE 17.3 mph - N/A   Clear
3:35 AM 19.4 °F 7.2 °F 15.8 °F 86% 30.26 in 10.0 mi SE 11.5 mph - N/A   Clear
3:55 AM 19.4 °F 6.6 °F 15.8 °F 86% 30.26 in 10.0 mi SSE 12.7 mph - N/A   Clear
4:15 AM 19.4 °F 6.0 °F 15.8 °F 86% 30.25 in 10.0 mi SSE 13.8 mph - N/A   Clear
4:35 AM 19.4 °F 6.0 °F 15.8 °F 86% 30.24 in 10.0 mi SSE 13.8 mph - N/A   Clear
4:55 AM 19.4 °F 14.3 °F 15.8 °F 86% 30.26 in 10.0 mi SSE 3.5 mph - N/A   Clear
5:15 AM 19.4 °F 9.5 °F 14.0 °F 80% 30.26 in 10.0 mi SSE 8.1 mph - N/A   Clear
5:35 AM 19.4 °F 6.0 °F 14.0 °F 80% 30.24 in 10.0 mi South 13.8 mph - N/A   Clear
5:55 AM 21.2 °F 8.9 °F 14.0 °F 74% 30.23 in 10.0 mi SSE 12.7 mph - N/A   Clear
6:15 AM 21.2 °F 8.3 °F 14.0 °F 74% 30.23 in 10.0 mi SSE 13.8 mph - N/A   Clear
6:35 AM 19.4 °F 7.9 °F 12.2 °F 74% 30.23 in 10.0 mi SSE 10.4 mph - N/A   Clear
7:15 AM 19.4 °F 7.9 °F 14.0 °F 80% 30.23 in 10.0 mi South 10.4 mph - N/A   Clear
7:35 AM 19.4 °F 7.9 °F 14.0 °F 80% 30.23 in 10.0 mi South 10.4 mph - N/A   Clear
7:55 AM 19.4 °F 9.5 °F 14.0 °F 80% 30.23 in 10.0 mi South 8.1 mph - N/A   Clear
8:15 AM 19.4 °F 7.2 °F 15.8 °F 86% 30.22 in 10.0 mi South 11.5 mph - N/A   Clear
8:35 AM 21.2 °F 6.8 °F 17.6 °F 86% 30.21 in 10.0 mi South 17.3 mph 23.0 mph N/A   Clear
8:55 AM 23.0 °F 7.2 °F 15.8 °F 74% 30.19 in 10.0 mi South 23.0 mph 26.5 mph N/A   Clear
9:15 AM 24.8 °F 9.0 °F 14.0 °F 64% 30.19 in 10.0 mi South 25.3 mph 32.2 mph N/A   Clear
9:35 AM 26.6 °F 11.1 °F 12.2 °F 55% 30.19 in 10.0 mi South 26.5 mph 36.8 mph N/A   Clear
10:35 AM 32.0 °F 20.5 °F 19.4 °F 60% 30.21 in 10.0 mi SSW 18.4 mph 24.2 mph N/A   Clear
10:55 AM 33.8 °F 22.8 °F 21.2 °F 60% 30.21 in 10.0 mi SSW 18.4 mph - N/A   Clear
11:15 AM 35.6 °F 24.8 °F 23.0 °F 60% 30.21 in 10.0 mi South 19.6 mph 26.5 mph N/A   Clear
11:35 AM 35.6 °F 25.9 °F 23.0 °F 60% 30.20 in 10.0 mi SSW 16.1 mph 24.2 mph N/A   Clear
12:15 PM 37.4 °F 27.5 °F 23.0 °F 56% 30.18 in 10.0 mi SW 18.4 mph 24.2 mph N/A   Clear
12:35 PM 39.2 °F 30.2 °F 23.0 °F 52% 30.16 in 10.0 mi SSW 17.3 mph - N/A   Clear
12:55 PM 41.0 °F 33.5 °F 23.0 °F 49% 30.14 in 10.0 mi SSW 13.8 mph 20.7 mph N/A   Clear
1:15 PM 41.0 °F 33.5 °F 23.0 °F 49% 30.13 in 10.0 mi SW 13.8 mph - N/A   Clear
1:35 PM 42.8 °F 36.2 °F 23.0 °F 46% 30.13 in 10.0 mi SW 12.7 mph 19.6 mph N/A   Clear
2:15 PM 46.4 °F 40.4 °F 24.8 °F 43% 30.10 in 10.0 mi SW 13.8 mph - N/A   Clear
2:35 PM 48.2 °F - 24.8 °F 40% 30.09 in 10.0 mi SSW 11.5 mph 16.1 mph N/A   Clear
2:55 PM 48.2 °F - 24.8 °F 40% 30.07 in 10.0 mi SSW 13.8 mph - N/A   Clear
3:15 PM 50.0 °F - 24.8 °F 37% 30.06 in 10.0 mi SSW 10.4 mph - N/A   Clear
3:35 PM 50.0 °F - 23.0 °F 35% 30.05 in 10.0 mi South 11.5 mph - N/A   Clear
3:55 PM 50.0 °F - 23.0 °F 35% 30.05 in 10.0 mi South 11.5 mph - N/A   Clear
4:15 PM 50.0 °F - 23.0 °F 35% 30.05 in 10.0 mi South 13.8 mph - N/A   Clear
4:35 PM 50.0 °F - 23.0 °F 35% 30.03 in 10.0 mi South 12.7 mph - N/A   Clear
4:55 PM 50.0 °F - 23.0 °F 35% 30.03 in 10.0 mi SSE 11.5 mph - N/A   Clear
5:15 PM 50.0 °F - 23.0 °F 35% 30.04 in 10.0 mi South 11.5 mph - N/A   Clear
5:35 PM 46.4 °F 42.4 °F 23.0 °F 40% 30.03 in 10.0 mi South 8.1 mph - N/A   Clear
5:55 PM 44.6 °F 38.8 °F 23.0 °F 43% 30.03 in 10.0 mi SSE 11.5 mph - N/A   Clear
6:15 PM 42.8 °F 37.0 °F 23.0 °F 46% 30.05 in 10.0 mi SE 10.4 mph - N/A   Clear
6:35 PM 41.0 °F 34.3 °F 23.0 °F 49% 30.05 in 10.0 mi SSE 11.5 mph - N/A   Clear
6:55 PM 37.4 °F 29.8 °F 23.0 °F 56% 30.06 in 10.0 mi SSE 11.5 mph - N/A   Clear
7:15 PM 35.6 °F 27.5 °F 23.0 °F 60% 30.07 in 10.0 mi SE 11.5 mph - N/A   Clear
7:35 PM 35.6 °F 29.2 °F 23.0 °F 60% 30.08 in 10.0 mi SE 8.1 mph - N/A   Clear
7:55 PM 33.8 °F 27.0 °F 23.0 °F 65% 30.09 in 10.0 mi SE 8.1 mph - N/A   Clear
8:15 PM 33.8 °F 25.8 °F 23.0 °F 65% 30.10 in 10.0 mi SE 10.4 mph - N/A   Clear
8:35 PM 33.8 °F 27.0 °F 21.2 °F 60% 30.11 in 10.0 mi SE 8.1 mph - N/A   Clear
8:55 PM 33.8 °F 27.0 °F 21.2 °F 60% 30.11 in 10.0 mi SE 8.1 mph - N/A   Clear
9:15 PM 32.0 °F 24.8 °F 21.2 °F 64% 30.11 in 10.0 mi SE 8.1 mph - N/A   Clear
9:35 PM 32.0 °F 24.2 °F 21.2 °F 64% 30.12 in 10.0 mi SE 9.2 mph - N/A   Clear
10:15 PM 32.0 °F 24.2 °F 21.2 °F 64% 30.13 in 10.0 mi SE 9.2 mph - N/A   Clear
10:55 PM 30.2 °F 21.9 °F 21.2 °F 69% 30.13 in 10.0 mi SSE 9.2 mph - N/A   Clear
11:15 PM 32.0 °F 23.6 °F 21.2 °F 64% 30.13 in 10.0 mi SSE 10.4 mph - N/A   Clear
11:35 PM 32.0 °F 23.6 °F 21.2 °F 64% 30.13 in 10.0 mi SE 10.4 mph - N/A   Clear
11:55 PM 33.8 °F 26.4 °F 21.2 °F 60% 30.14 in 10.0 mi SSE 9.2 mph - N/A   Clear